Regional Weather Roundup
Issued by NWS

Home | Current Version | Previous Version | Graphics & Text | Print | Product List | Glossary On
Versions: 1 2 3 4 5 6 7 8 9 10 11 12 13 14 15 16 17 18 19 20 21 22 23 24 25 26 27 28 29 30 31 32 33 34 35 36 37 38 39 40 41 42 43 44 45 46 47 48 49 50
277
ASUS43 KMPX 230410
RWRMN
WEATHER ROUNDUP FOR MINNESOTA
NATIONAL WEATHER SERVICE TWIN CITIES/CHANHASSEN MN
1100 PM CDT SAT APR 22 2017


NOTE: "FAIR" INDICATES FEW OR NO CLOUDS BELOW 12,000 FEET WITH NO
SIGNIFICANT WEATHER AND/OR OBSTRUCTIONS TO VISIBILITY. N/A MEANS
CURRENT SKY AND/OR WEATHER CONDITIONS ARE NOT AVAILABLE.

MNZ060>063-068>070-230500-
   Twin Cities Metro

CITY           SKY/WX    TMP DP  RH WIND       PRES   REMARKS
TWIN CITIES    CLEAR     57  38  48 CALM      30.10S
ST PAUL        PTCLDY    52  43  71 CALM      30.11R
CRYSTAL        CLEAR     50  34  54 CALM      30.09S
LAKEVILLE      CLEAR     50  39  66 CALM      30.11S
EDEN PRAIRIE   CLEAR     58  34  40 SW3       30.09S
SOUTH ST PAUL  CLEAR     51  40  65 SW3       30.10S
LAKE ELMO      FAIR      46  41  81 CALM      30.11S
$$
MNZ001>005-007-008-013>017-022>024-027-028-230500-
   Northwest Minnesota

CITY           SKY/WX    TMP DP  RH WIND       PRES   REMARKS
BEMIDJI        LGT RAIN  38  34  87 N12       30.15R
HALLOCK        CLOUDY    34  23  64 N16       30.26R WCI  23
ROSEAU         CLOUDY    34  27  75 N10       30.23R WCI  26
WARROAD        CLOUDY    34  27  75 NW8       30.22S WCI  27
THIEF RVR FALL FLURRIES  32  30  92 NE9       30.22R WCI  24
CROOKSTON      MIX PCPN  34  34 100 NE10      30.23R WCI  26
FOSSTON        CLOUDY    36  28  75 N20       30.18R
DETROIT LAKES  CLOUDY    46  39  76 N14G21    30.10S
MOORHEAD       CLOUDY    39  36  87 N20G28    30.14R
PARK RAPIDS    CLOUDY    46  35  65 N22G28    30.09R
MAHNOMEN       CLOUDY    38  35  90 N18G25    30.14S
$$
MNZ006-009>011-018-025>026-230500-
   North Central Minnesota

CITY           SKY/WX    TMP DP  RH WIND       PRES   REMARKS
BAUDETTE       CLOUDY    34  27  75 N8        30.20R WCI  27
FLAG ISLAND    CLOUDY    36  27  69 NW17      30.21R
INTL FALLS     LGT RAIN  37  33  85 N12       30.16R
WASKISH        DRIZZLE   36  36 100 N10       30.17S
BIG FORK       LGT RAIN  39  36  87 N9        30.13F
LONGVILLE      CLOUDY    46  37  71 N10G21    30.09R
GRAND RAPIDS   CLOUDY    44  36  73 N9        30.11R
CRANE LAKE     LGT RAIN  36  36 100 N8        30.16R
ORR            DRIZZLE   39  34  81 MISG      30.10F
COOK           CLOUDY    41  36  81 N6        30.12R
WALKER         LGT RAIN  41  36  81 N15       30.12R
$$
MNZ012-019>021-037-230500-
   Northeast Minnesota

CITY           SKY/WX    TMP DP  RH WIND       PRES   REMARKS
DULUTH         CLOUDY    51  39  63 N14       30.06R
ELY            CLOUDY    41  37  87 NW8       30.09R
HIBBING        CLOUDY    42  37  82 N8        30.09R
EVELETH        LGT RAIN  44  35  70 N6        30.10S
DULUTH HARBOR  MOCLDY    46  39  76 NE10      30.07R
TWO HARBORS    MOCLDY    52  41  66 NE5       30.04S
SILVER BAY     MOCLDY    48  37  66 NW5       30.04R
GRAND MARAIS     N/A     47  37  68 VRB3      30.03R
G MARAIS ARPRT PTCLDY    39  32  75 NW13G18   30.03F
$$
MNZ029>031-032-039>041-046>048-054>057-064-230500-
   West Central Minnesota

CITY           SKY/WX    TMP DP  RH WIND       PRES   REMARKS
FERGUS FALLS   MOCLDY    50  43  76 N10       30.05R
WHEATON        CLEAR     48  41  76 NW9       30.10R
MORRIS         CLEAR     54  39  58 SW9       30.06F
ALEXANDRIA     CLEAR     53  38  56 SW10      30.07F
ELBOW LAKE     FAIR      53  39  60 W14       30.06R
WADENA         CLOUDY    54  41  62 NW6       30.04S
GLENWOOD       CLEAR     50  39  66 SW8       30.07F
APPLETON       CLEAR     57  39  51 SW9       30.08S
BENSON         CLEAR     55  34  44 W9        30.10S
ORTONVILLE     CLEAR     54  39  58 SW5       30.08S
MADISON        CLEAR     54  43  66 SW9       30.10S
WILLMAR        FAIR      52  37  58 SW7       30.11S
$$
MNZ033>034-036-042>043-049>051-058-059-230500-
   Central Minnesota

CITY           SKY/WX    TMP DP  RH WIND       PRES   REMARKS
ST CLOUD       CLEAR     50  40  68 S7        30.07F
SAUK CENTRE    FAIR      49  40  71 S8        30.07F
PAYNESVILLE    CLEAR     52  37  56 S6        30.09F
AITKIN         MOCLDY    55  36  47 N3        30.04S
PINE RIVER     CLOUDY    52  41  66 N13G18    30.10R
BRAINERD       CLOUDY    52  36  54 CALM      30.04F
STAPLES        CLOUDY    54  37  54 S3        30.03F
LONG PRAIRIE   FAIR      50  37  62 S6        30.06F
LITTLE FALLS   CLEAR     52  36  54 S5        30.05F
LITCHFIELD     CLEAR     55  39  54 CALM      30.10F
BUFFALO        CLEAR     50  38  64 CALM      30.10F
MAPLE LAKE     CLEAR     49  40  73 CALM      30.10S
HUTCHINSON     CLOUDY    48  41  75 CALM      30.12S
$$
MNZ037-044-045-052-053-230500-
   East Central Minnesota

CITY           SKY/WX    TMP DP  RH WIND       PRES   REMARKS
PRINCETON      CLEAR     46  37  71 CALM      30.08F
MORA           CLEAR     50  37  62 SW5       30.08F
CAMBRIDGE      CLEAR     52  39  62 CALM      30.06F
RUSH CITY      MOCLDY    47  35  63 SW3       30.08S
MOOSE LAKE     PTCLDY    52  34  50 N7        30.03S
HINCKLEY       FAIR      50  37  62 S3        30.06F
CLOQUET        CLOUDY    54  37  54 N10       30.06R
MCGREGOR       CLEAR     54  43  66 N7        30.05S
$$
MNZ071>073-080-081-089-090-097-098-230500-
   Southwest Minnesota

CITY           SKY/WX    TMP DP  RH WIND       PRES   REMARKS
MONTEVIDEO     CLEAR     55  36  47 W7        30.10S
GRANITE FALLS  CLEAR     55  37  51 SW7       30.13S
CANBY          CLEAR     54  39  55 CALM      30.12S
MARSHALL       CLEAR     52  38  58 SW10      30.12S
REDWOOD FALLS  CLEAR     56  35  45 SW7       30.11S
OLIVIA         CLEAR     50  36  57 SW7       30.11S
PIPESTONE      CLEAR     48  36  61 SW6       30.14F
WINDOM         CLEAR     50  36  57 CALM      30.14S
WORTHINGTON    CLEAR     52  36  54 SW9       30.16S
JACKSON        CLEAR     52  36  54 SW7       30.15S
TRACY          CLEAR     53  39  60 SW8       30.13F
SLAYTON        CLEAR     49  37  65 SW7       30.15S
$$
MNZ065>067-074>077-082>085-091>093-230500-
   South Central Minnesota

CITY           SKY/WX    TMP DP  RH WIND       PRES   REMARKS
MANKATO        CLEAR     57  35  43 SW7       30.12S
NEW ULM        CLEAR     50  36  57 SW5       30.12S
ST JAMES       CLEAR     52  41  66 SW6       30.14S
FAIRMONT       CLEAR     53  39  59 SW7       30.14F
GLENCOE        CLEAR     52  43  71 CALM      30.10S
FARIBAULT      PTCLDY    54  39  58 CALM      30.13R
OWATONNA       CLEAR     54  36  50 S6        30.13S
WASECA         CLEAR     50  37  62 S3        30.13F
ALBERT LEA     CLEAR     50  43  76 S3        30.14S
$$
MNZ078>079-086>088-094>096-230500-
   Southeast Minnesota

CITY           SKY/WX    TMP DP  RH WIND       PRES   REMARKS
ROCHESTER      CLEAR     49  38  65 S7        30.13F
RED WING       CLEAR     48  37  66 CALM      30.10S
STANTON        CLEAR     50  40  67 SW3       30.10S
DODGE CENTER   CLEAR     48  37  66 SW3       30.13S
WINONA         CLEAR     50  43  76 CALM      30.12F
AUSTIN         CLEAR     52  36  54 S3        30.13F
PRESTON        CLEAR     51  32  47 SW6       30.14F
$$
ABBREVIATIONS USED IN REMARKS
   TC - TEMPERATURES IN CELSIUS
  WCI - WIND CHILL INDEX
   HX - HEAT INDEX
  VSB - VISIBILITY
$$




USA.gov is the U.S. government's official web portal to all federal, state and local government web resources and services.